1998-067WS

Last updated on Thu Sep 05 2024 00:02:08 GMT+0000 (Coordinated Universal Time)

1 60952U 98067WS 24247.60271997 .00140970 00000+0 23388-2 0 9998 2 60952 51.6401 286.8289 0012954 319.4077 40.6076 15.51042010 817
UTC large
Height (km)
Speed (km/s)
/
Latitude / Longitude
Inclination (degrees)
Orbital Period (minutes)
Azimuth
Elevation
Range (km)
Doppler Factor

Next 0 passes for location: London (51.5072 / 0.1276)

Sorry there are no passes over London.